This is the latest recevied weather packets stored in our database for station/object IZ1UQG-2. If no packets are shown the sender has not sent any weather packets the latest 10 day(s).
| Time | Temp. | Humidity | Pressure | Rain* | Wind** | Luminosity | Snow |
|---|---|---|---|---|---|---|---|
| 1777404844 | 16.67° C | 81% | 1013.7 hPa | 0 mm | - | 0 W/m² | - |
| 1777404544 | 16.67° C | 81% | 1013.5 hPa | 0 mm | - | 0 W/m² | - |
| 1777404245 | 16.67° C | 81% | 1013.5 hPa | 0 mm | - | 0 W/m² | - |
| 1777403944 | 16.67° C | 81% | 1013.4 hPa | 0 mm | - | 0 W/m² | - |
| 1777403884 | 16.67° C | 81% | 1013.5 hPa | 0 mm | - | 0 W/m² | - |
| 1777403225 | 16.67° C | 82% | 1013.4 hPa | 0 mm | - | 0 W/m² | - |
| 1777403165 | 16.67° C | 81% | 1013.3 hPa | 0 mm | - | 0 W/m² | - |
| 1777402984 | 16.67° C | 81% | 1013.3 hPa | 0 mm | - | 0 W/m² | - |
| 1777402384 | 16.67° C | 81% | 1013.2 hPa | 0 mm | - | 0 W/m² | - |
| 1777401604 | 16.67° C | 81% | 1013.2 hPa | 0 mm | - | 0 W/m² | - |
| 1777401373 | 16.67° C | 81% | 1013.2 hPa | 0 mm | - | 0 W/m² | - |
| 1777399449 | 16.67° C | 80% | 1013.1 hPa | 0 mm | - | 5 W/m² | - |
| 1777398785 | 16.67° C | 80% | 1013.2 hPa | 0 mm | - | 5 W/m² | - |
| 1777398544 | 16.67° C | 80% | 1013.1 hPa | 0 mm | - | 5 W/m² | - |
| 1777398064 | 16.67° C | 80% | 1013.1 hPa | 0 mm | - | 7 W/m² | - |
| 1777397585 | 16.67° C | 80% | 1013 hPa | 0 mm | - | 16 W/m² | - |
| 1777397164 | 16.67° C | 80% | 1013.1 hPa | 0 mm | - | 23 W/m² | - |
| 1777397104 | 16.67° C | 80% | 1013 hPa | 0 mm | - | 23 W/m² | - |
| 1777396684 | 16.67° C | 79% | 1013.1 hPa | 0 mm | - | 32 W/m² | - |
| 1777396204 | 16.67° C | 79% | 1012.9 hPa | 0 mm | - | 53 W/m² | - |
| 1777396084 | 16.67° C | 79% | 1012.9 hPa | 0 mm | - | 63 W/m² | - |
| 1777395724 | 17.22° C | 79% | 1013 hPa | 0 mm | - | 76 W/m² | - |
| 1777395604 | 17.22° C | 79% | 1013 hPa | 0 mm | - | 79 W/m² | - |
| 1777395004 | 17.22° C | 79% | 1013.2 hPa | 0 mm | - | 102 W/m² | - |
| 1777394104 | 17.22° C | 79% | 1013.1 hPa | 0 mm | - | 121 W/m² | - |
* Rain latest hour (hover to see other rain measurements)
** Current wind speed in m/s (hover to see current wind gust speed)